Location: Alpha Ridge Park
(39.3209°N, 76.9128°W)
Time: 09:32:20
(UTC-04:00)

A-11 Canister half - Visible Passes

Search period start: 21 May 2019 00:00
Search period end: 31 May 2019 00:00
Orbit: 1517 x 1683 km, 47.2° (Epoch: 20 May)

Date Brightness Start Highest point End Pass type
(mag) Time Alt. Az. Time Alt. Az. Time Alt. Az.
21 May 8.8 02:04:40 10° WNW 02:14:01 89° SSW 02:23:36 10° ESE visible
21 May 9.5 04:10:15 10° WNW 04:18:11 32° SW 04:26:19 10° S visible
21 May 9.4 21:30:07 10° W 21:39:21 64° NNW 21:48:35 10° ENE visible
21 May 9.5 23:36:24 10° WNW 23:45:26 54° N 23:54:34 10° E visible
22 May 8.9 01:41:46 10° WNW 01:51:06 87° NNE 02:00:40 10° ESE visible
22 May 9.4 03:47:14 10° WNW 03:55:20 34° SW 04:03:38 10° SSE visible
22 May 9.4 21:07:09 10° WSW 21:16:25 66° NNW 21:25:39 10° ENE visible
22 May 9.6 23:13:26 10° WNW 23:22:28 53° N 23:31:34 10° E visible
23 May 8.9 01:18:52 10° WNW 01:28:11 84° NNE 01:37:43 10° ESE visible
23 May 9.3 03:24:15 10° WNW 03:32:30 37° SW 03:40:58 10° SSE visible
23 May 9.4 20:44:09 10° WSW 20:53:28 68° NNW 21:02:43 10° ENE visible
23 May 9.6 22:50:27 10° WNW 22:59:28 53° N 23:08:33 10° E visible
24 May 8.9 00:55:57 10° WNW 01:05:16 81° NNE 01:13:57 13° ESE visible
24 May 9.3 03:01:16 10° WNW 03:09:39 39° SW 03:11:43 35° SSW visible
24 May 9.6 22:27:29 10° WNW 22:36:30 53° N 22:45:34 10° ENE visible
25 May 8.9 00:33:02 10° WNW 00:42:20 78° NNE 00:49:07 22° ESE visible
25 May 9.2 02:38:18 10° WNW 02:46:48 42° SW 02:47:09 42° SW visible
25 May 9.6 22:04:30 10° WNW 22:13:31 53° N 22:22:34 10° ENE visible
26 May 9.0 00:10:07 10° WNW 00:19:25 76° NNE 00:25:45 24° ESE visible
26 May 9.1 02:15:20 10° WNW 02:23:50 44° SW 02:23:50 44° SW visible
26 May 9.7 21:41:30 10° WNW 21:50:33 53° N 21:59:35 10° ENE visible
26 May 9.0 23:47:12 10° WNW 23:56:28 73° NNE 00:02:52 23° ESE visible
27 May 9.1 01:52:23 10° WNW 02:00:58 47° SW 02:00:58 47° SW visible
27 May 9.7 21:18:31 10° WNW 21:27:35 53° N 21:36:36 10° ENE visible
27 May 9.1 23:24:17 10° WNW 23:33:32 71° NNE 23:40:13 22° ESE visible
28 May 9.0 01:29:26 10° WNW 01:38:14 50° SW 01:38:21 50° SW visible
28 May 9.7 20:55:31 10° W 21:04:36 53° N 21:13:38 10° ENE visible
28 May 9.1 23:01:21 10° WNW 23:10:36 69° NNE 23:17:45 19° ESE visible
29 May 9.0 01:06:30 10° WNW 01:15:23 53° SW 01:15:54 53° SSW visible
29 May 9.2 22:38:26 10° WNW 22:47:40 66° NNE 22:55:24 16° E visible
30 May 8.9 00:43:34 10° WNW 00:52:31 56° SW 00:53:33 54° SSW visible
30 May 10.7 02:51:37 10° W 02:51:42 10° W 02:51:42 10° W visible
30 May 9.2 22:15:30 10° WNW 22:24:43 65° NNE 22:33:09 13° E visible
